When you browse on this site, cookies collect data to enhance your experience and personalize the content and advertising you see.
Visit our Privacy Policy to learn more. By continuing to use the site, you agree to this use of cookies and data.
  • In Portugal
  • List of Countries
  • For 7 days
  • Water Temperature
  • Satellite Maps
  • Weather Map
  • Weather Widgets
  • user-avatar
    Login

    Hourly Weather Sieradzice

    Today, 19 June, Wednesday

    Time Temperature Precipitation Wind Pressure Humidity
    00:00 +18°C° 0 mm 2 mps 738 mmHg 95%
    01:00 +18°C° 0 mm 2 mps 738 mmHg 96%
    02:00 +18°C° 0 mm 2 mps 738 mmHg 96%
    03:00 +17°C° 0 mm 2 mps 738 mmHg 97%
    04:00 +17°C° 0 mm 2 mps 737 mmHg 97%
    05:00 +19°C° 0 mm 1 mps 737 mmHg 94%
    06:00 +20°C° 0 mm 1 mps 737 mmHg 91%
    07:00 +21°C° 0 mm 1 mps 737 mmHg 89%
    08:00 +23°C° 0 mm 1 mps 737 mmHg 83%
    09:00 +25°C° 0 mm 1 mps 737 mmHg 77%
    10:00 +24°C° 0 mm 0 mps 737 mmHg 71%
    11:00 +27°C° 0 mm 1 mps 737 mmHg 66%
    12:00 +28°C° 0 mm 1 mps 736 mmHg 61%
    13:00 +29°C° 0 mm 1 mps 736 mmHg 56%
    14:00 +29°C° 0 mm 1 mps 736 mmHg 55%
    15:00 +29°C° 0 mm 1 mps 735 mmHg 55%
    16:00 +29°C° 0 mm 1 mps 735 mmHg 54%
    17:00 +28°C° 0.5 mm 1 mps 735 mmHg 61%
    18:00 +26°C° 0.5 mm 1 mps 735 mmHg 67%
    19:00 +25°C° 0.5 mm 1 mps 735 mmHg 74%
    20:00 +24°C° 0.2 mm 1 mps 735 mmHg 77%
    21:00 +23°C° 0.2 mm 1 mps 735 mmHg 79%
    22:00 +22°C° 0.2 mm 1 mps 735 mmHg 82%
    23:00 +21°C° 0 mm 1 mps 735 mmHg 83%

    Tomorrow, 20 June, Thursday

    Time Temperature Precipitation Wind Pressure Humidity
    00:00 +21°C° 0 mm 1 mps 735 mmHg 84%
    01:00 +20°C° 0 mm 1 mps 735 mmHg 84%
    02:00 +20°C° 0 mm 1 mps 735 mmHg 85%
    03:00 +20°C° 0 mm 1 mps 735 mmHg 85%
    04:00 +20°C° 0 mm 1 mps 735 mmHg 85%
    05:00 +21°C° 0 mm 1 mps 735 mmHg 82%
    06:00 +22°C° 0 mm 1 mps 735 mmHg 78%
    07:00 +24°C° 0 mm 1 mps 735 mmHg 75%
    08:00 +25°C° 0.2 mm 1 mps 735 mmHg 71%
    09:00 +27°C° 0.2 mm 1 mps 735 mmHg 66%
    10:00 +28°C° 0.2 mm 1 mps 735 mmHg 62%
    11:00 +28°C° 0.4 mm 1 mps 735 mmHg 61%
    12:00 +28°C° 0.4 mm 1 mps 735 mmHg 60%
    13:00 +28°C° 0.4 mm 1 mps 735 mmHg 60%
    14:00 +28°C° 0.1 mm 1 mps 735 mmHg 63%
    15:00 +27°C° 0.1 mm 2 mps 735 mmHg 66%
    16:00 +26°C° 0.1 mm 2 mps 735 mmHg 70%
    17:00 +26°C° 0 mm 2 mps 735 mmHg 72%
    18:00 +25°C° 0 mm 1 mps 734 mmHg 75%
    19:00 +24°C° 0 mm 1 mps 734 mmHg 77%
    20:00 +23°C° 0 mm 1 mps 735 mmHg 79%
    21:00 +22°C° 0 mm 1 mps 735 mmHg 81%
    22:00 +21°C° 0 mm 1 mps 735 mmHg 83%
    23:00 +21°C° 0.1 mm 1 mps 735 mmHg 84%

    Day after tomorrow, 21 June, Friday

    Time Temperature Precipitation Wind Pressure Humidity
    00:00 +20°C° 0.1 mm 1 mps 735 mmHg 86%
    01:00 +20°C° 0.1 mm 1 mps 735 mmHg 87%
    02:00 +19°C° 0.1 mm 1 mps 735 mmHg 88%
    03:00 +19°C° 0.1 mm 1 mps 735 mmHg 89%
    04:00 +19°C° 0.1 mm 1 mps 735 mmHg 90%
    05:00 +20°C° 0.1 mm 1 mps 736 mmHg 87%
    06:00 +21°C° 0.1 mm 2 mps 736 mmHg 84%
    07:00 +23°C° 0.1 mm 2 mps 736 mmHg 82%
    08:00 +24°C° 1.1 mm 2 mps 736 mmHg 78%
    09:00 +25°C° 1.1 mm 2 mps 736 mmHg 75%
    10:00 +27°C° 1.1 mm 2 mps 736 mmHg 71%
    11:00 +27°C° 0.7 mm 2 mps 736 mmHg 67%
    12:00 +27°C° 0.7 mm 1 mps 736 mmHg 64%
    13:00 +28°C° 0.7 mm 1 mps 736 mmHg 60%
    14:00 +27°C° 0.4 mm 2 mps 736 mmHg 64%
    15:00 +27°C° 0.4 mm 2 mps 736 mmHg 67%
    16:00 +27°C° 0.4 mm 2 mps 736 mmHg 70%
    17:00 +25°C° 0.2 mm 2 mps 736 mmHg 75%
    18:00 +24°C° 0.2 mm 2 mps 736 mmHg 80%
    19:00 +23°C° 0.2 mm 1 mps 736 mmHg 85%
    20:00 +21°C° 0.2 mm 2 mps 736 mmHg 86%
    21:00 +21°C° 0.2 mm 2 mps 736 mmHg 88%
    22:00 +20°C° 0.2 mm 2 mps 737 mmHg 89%
    23:00 +20°C° 0.4 mm 2 mps 737 mmHg 91%

    22 June, Saturday

    Time Temperature Precipitation Wind Pressure Humidity
    00:00 +19°C° 0.4 mm 2 mps 737 mmHg 93%
    01:00 +18°C° 0.4 mm 2 mps 737 mmHg 95%
    02:00 +18°C° 1.1 mm 2 mps 737 mmHg 95%
    03:00 +18°C° 1.1 mm 2 mps 737 mmHg 95%
    04:00 +18°C° 1.1 mm 2 mps 737 mmHg 96%
    05:00 +19°C° 0.5 mm 2 mps 737 mmHg 94%
    06:00 +19°C° 0.5 mm 3 mps 737 mmHg 92%
    07:00 +20°C° 0.5 mm 3 mps 738 mmHg 91%
    08:00 +21°C° 1 mm 2 mps 738 mmHg 87%
    09:00 +23°C° 1 mm 2 mps 738 mmHg 83%
    10:00 +24°C° 1 mm 2 mps 738 mmHg 79%
    11:00 +24°C° 1.1 mm 2 mps 738 mmHg 79%
    12:00 +24°C° 1.1 mm 2 mps 738 mmHg 78%
    13:00 +25°C° 1.1 mm 2 mps 738 mmHg 77%
    14:00 +24°C° 1.7 mm 2 mps 737 mmHg 81%
    15:00 +23°C° 1.7 mm 2 mps 737 mmHg 86%
    16:00 +21°C° 1.7 mm 2 mps 737 mmHg 90%
    17:00 +20°C° 1.9 mm 2 mps 737 mmHg 91%
    18:00 +21°C° 1.9 mm 1 mps 737 mmHg 93%
    19:00 +20°C° 1.9 mm 1 mps 737 mmHg 94%
    20:00 +20°C° 1.3 mm 1 mps 737 mmHg 95%
    21:00 +20°C° 1.3 mm 1 mps 737 mmHg 96%
    22:00 +20°C° 1.3 mm 1 mps 737 mmHg 97%
    23:00 +19°C° 0.6 mm 1 mps 737 mmHg 97%

    23 June, Sunday

    Time Temperature Precipitation Wind Pressure Humidity
    00:00 +19°C° 0.6 mm 1 mps 736 mmHg 97%
    01:00 +19°C° 0.6 mm 1 mps 736 mmHg 97%
    02:00 +19°C° 0.1 mm 1 mps 736 mmHg 97%
    03:00 +19°C° 0.1 mm 1 mps 736 mmHg 97%
    04:00 +18°C° 0.1 mm 1 mps 736 mmHg 97%
    05:00 +19°C° 0.1 mm 1 mps 736 mmHg 95%
    06:00 +19°C° 0.1 mm 2 mps 736 mmHg 92%
    07:00 +20°C° 0.1 mm 2 mps 736 mmHg 90%
    08:00 +21°C° 0.2 mm 3 mps 736 mmHg 88%
    09:00 +21°C° 0.2 mm 4 mps 736 mmHg 85%
    10:00 +22°C° 0.2 mm 5 mps 736 mmHg 83%
    11:00 +21°C° 0.3 mm 6 mps 736 mmHg 83%
    12:00 +21°C° 0.3 mm 6 mps 736 mmHg 82%
    13:00 +20°C° 0.3 mm 7 mps 736 mmHg 82%
    14:00 +18°C° 0 mm 7 mps 737 mmHg 82%
    15:00 +17°C° 0 mm 7 mps 737 mmHg 83%
    16:00 +16°C° 0 mm 7 mps 737 mmHg 84%
    17:00 +16°C° 0.1 mm 7 mps 737 mmHg 85%
    18:00 +15°C° 0.1 mm 7 mps 738 mmHg 87%
    19:00 +15°C° 0.1 mm 7 mps 738 mmHg 89%
    20:00 +14°C° 0.1 mm 7 mps 738 mmHg 90%
    21:00 +14°C° 0.1 mm 7 mps 739 mmHg 91%
    22:00 +14°C° 0.1 mm 7 mps 739 mmHg 92%
    23:00 +14°C° 0.2 mm 7 mps 739 mmHg 93%

    24 June, Monday

    Time Temperature Precipitation Wind Pressure Humidity
    00:00 +12°C° 0.2 mm 7 mps 739 mmHg 93%
    01:00 +12°C° 0.2 mm 7 mps 740 mmHg 94%
    02:00 +13°C° 0.8 mm 6 mps 740 mmHg 94%
    03:00 +13°C° 0.8 mm 6 mps 740 mmHg 95%
    04:00 +13°C° 0.8 mm 6 mps 740 mmHg 95%
    05:00 +13°C° 0.2 mm 6 mps 741 mmHg 94%
    06:00 +13°C° 0.2 mm 5 mps 741 mmHg 93%
    07:00 +13°C° 0.2 mm 5 mps 742 mmHg 93%
    08:00 +13°C° 0 mm 4 mps 742 mmHg 91%
    09:00 +13°C° 0 mm 4 mps 742 mmHg 89%
    10:00 +14°C° 0 mm 4 mps 743 mmHg 88%
    11:00 +17°C° 0 mm 4 mps 743 mmHg 80%
    12:00 +19°C° 0 mm 5 mps 743 mmHg 71%
    13:00 +21°C° 0 mm 5 mps 744 mmHg 63%
    14:00 +21°C° 0 mm 5 mps 744 mmHg 63%
    15:00 +21°C° 0 mm 4 mps 744 mmHg 63%
    16:00 +21°C° 0 mm 4 mps 743 mmHg 62%
    17:00 +20°C° 0 mm 3 mps 744 mmHg 68%
    18:00 +19°C° 0 mm 3 mps 744 mmHg 73%
    19:00 +18°C° 0 mm 2 mps 744 mmHg 78%
    20:00 +17°C° 0 mm 2 mps 744 mmHg 81%
    21:00 +16°C° 0 mm 2 mps 745 mmHg 85%
    22:00 +14°C° 0 mm 2 mps 745 mmHg 88%
    23:00 +14°C° 0 mm 2 mps 745 mmHg 89%
    Show more